Eielson AFB, AK

1:39 AM AKST on January 24, 2017 (GMT -0900)
Eielson Air Force Base

Weather History for PAEI - November, 2012

Change the Weather History Date:

Saturday, November 24, 2012

  Actual Average Record
Temperature  
Mean Temperature -20 °F -  
Max Temperature -14 °F 7 °F 48 °F (1992)
Min Temperature -25 °F -7 °F -44 °F (1963)
Degree Days  
Heating Degree Days 84    
Moisture  
Dew Point -28 °F    
Average Humidity 73    
Maximum Humidity 78    
Minimum Humidity 69    
Precipitation  
Precipitation 0.00 in - - ()
Sea Level Pressure  
Sea Level Pressure 30.19 in    
Wind  
Wind Speed 0 mph (North)    
Max Wind Speed 0 mph    
Max Gust Speed -    
Visibility 10 miles    
Events Snow    
Averages and records for this station are not official NWS values.
T = Trace of Precipitation, MM = Missing Value Source: NWS Daily Summary

Daily Weather History Graph

Daily Weather History Graph

Search for Another Location

Airport or City:

Trip Planner

Search our weather history database for the weather conditions in past years. The results will help you decide how hot, cold, wet, or windy it might be!

Date:

Astronomy

Nov. 24, 2012 Rise Set
Actual Time 9:54 AM AKST 3:15 PM AKST
Civil Twilight 8:45 AM AKST 4:24 PM AKST
Nautical Twilight 7:40 AM AKST 5:29 PM AKST
Astronomical Twilight 6:41 AM AKST 6:28 PM AKST
Moon 2:10 PM AKST 5:07 AM AKST
Length of Visible Light 7h 38m
Length of Day
5h 21m
Waxing Gibbous, 88% of the Moon is Illuminated
Nov 24
Waxing Gibbous
Nov 28
Full
Dec 6
Last Quarter
Dec 12
New
Dec 19
First Quarter

Hourly Weather History & Observations

Time (AKST) Temp. Dew Point Humidity Pressure Visibility Wind Dir Wind Speed Gust Speed Precip Events Conditions
12:55 AM -21.3 °F -27.6 °F 73% 30.15 in 10.0 mi Calm Calm - N/A   Clear
1:55 AM -22.5 °F -29.0 °F 72% 30.15 in 10.0 mi Calm Calm - N/A   Clear
2:55 AM -22.5 °F -29.2 °F 71% 30.16 in 10.0 mi Calm Calm - N/A   Clear
3:55 AM -24.2 °F -29.9 °F 74% 30.15 in 10.0 mi Calm Calm - N/A   Clear
4:55 AM -24.3 °F -29.9 °F 75% 30.16 in 10.0 mi Calm Calm - N/A   Clear
5:55 AM -22.5 °F -29.2 °F 71% 30.16 in 10.0 mi Calm Calm - 0.00 in Snow Light Snow
6:55 AM -23.6 °F -29.9 °F 72% 30.16 in 10.0 mi Calm Calm - 0.00 in   Clear
7:55 AM -23.8 °F -29.9 °F 73% 30.17 in 10.0 mi Calm Calm - N/A   Clear
8:55 AM -24.3 °F -29.9 °F 75% 30.18 in 10.0 mi Calm Calm - N/A   Clear
9:55 AM -25.1 °F -29.9 °F 78% 30.18 in 10.0 mi Calm Calm - N/A   Clear
10:55 AM -21.6 °F -28.5 °F 71% 30.18 in 10.0 mi Calm Calm - N/A   Clear
11:55 AM -20.2 °F -27.4 °F 69% 30.18 in 10.0 mi Calm Calm - N/A   Clear
12:55 PM -16.2 °F -23.3 °F 71% 30.19 in 10.0 mi Calm Calm - N/A   Clear
1:55 PM -14.8 °F -21.5 °F 72% 30.20 in 10.0 mi Calm Calm - N/A   Clear
2:55 PM -18.0 °F -24.0 °F 74% 30.19 in 10.0 mi Calm Calm - N/A   Clear
3:55 PM -17.3 °F -23.4 °F 74% 30.19 in 10.0 mi Calm Calm - N/A   Clear
4:55 PM -18.6 °F -24.9 °F 73% 30.21 in 10.0 mi Calm Calm - N/A   Clear
5:55 PM -18.8 °F -24.9 °F 74% 30.21 in 10.0 mi Calm Calm - N/A   Clear
6:55 PM -20.7 °F -27.2 °F 72% 30.22 in 10.0 mi Calm Calm - N/A   Clear
7:55 PM -20.7 °F -27.8 °F 70% 30.23 in 10.0 mi Calm Calm - N/A   Clear
8:55 PM -22.0 °F -28.8 °F 71% 30.24 in 10.0 mi Calm Calm - N/A   Clear
9:55 PM -21.6 °F -28.1 °F 72% 30.25 in 10.0 mi Calm Calm - N/A   Clear
10:55 PM -24.3 °F -29.9 °F 75% 30.27 in 10.0 mi Calm Calm - N/A   Clear
11:55 PM -21.8 °F -28.3 °F 72% 30.28 in 10.0 mi Calm Calm - N/A   Clear